Home > Weather > Utrecht > Past weeks

Flag for Netherlands Past Weather in Utrecht, Netherlands — Yesterday and Last 2 Weeks

Now
61 °F

Passing clouds.


Feels Like: 61 °F
Forecast: 50 / 73 °F
Wind: 3 mph from North

Location: Amsterdam Schiphol Airport

Current Time: Aug 29, 2016 at 7:51:01 AM

Latest Report: Aug 29, 2016 at 6:55 AM


Visibility: N/A

Pressure: 30.01 "Hg

Humidity: 88%

Dew Point: 57 °F

Location of UtrechtLocation

Past Weather in Utrecht — Graph

°F

Utrecht Temperature Yesterday

Maximum temperature yesterday: 73 °F (at 11:55 AM)
Minimum temperature yesterday: 64 °F (at 6:55 AM)
Average temperature yesterday: 69 °F

High & Low Weather Summary for the Past Weeks

 TemperatureHumidityPressure
High88 °F (Aug 25, 3:55 PM)100% (Aug 14, 6:55 AM)30.30 "Hg (Aug 14, 6:55 AM)
Low52 °F (Aug 15, 2:25 AM)42% (Aug 23, 5:55 PM)29.74 "Hg (Aug 19, 3:55 PM)
Average67 °F76%30.02 "Hg
* Reported Aug 14 6:25 AM — Aug 29 6:25 AM, Utrecht, Weather by CustomWeather, © 2016

Note: Actual official high and low records may vary slightly from our data, if they occured in-between our weather recording intervals... More about our weather records

Advertising

Utrecht Weather History for the Previous 24 Hours

Scroll right to see more
 ConditionsComfort  
Time TempWeatherWind HumidityBarometerVisibility
6:25 AM
Mon, Aug 29
61 °FPassing clouds.5 mph88%30.01 "HgN/A
5:55 AM63 °FPassing clouds.7 mph88%29.98 "HgN/A
5:25 AM61 °FPassing clouds.6 mph94%29.98 "HgN/A
4:55 AM63 °FPassing clouds.8 mph88%29.98 "HgN/A
4:25 AM64 °FPassing clouds.9 mph83%29.98 "HgN/A
3:55 AM64 °FPassing clouds.9 mph83%29.95 "HgN/A
3:25 AM64 °FPassing clouds.10 mph88%29.95 "HgN/A
2:55 AM64 °FPassing clouds.9 mph88%29.95 "HgN/A
2:25 AM64 °FPassing clouds.12 mph83%29.95 "HgN/A
1:55 AM64 °FPassing clouds.12 mph88%29.95 "HgN/A
1:25 AM64 °FSprinkles. Passing clouds.14 mph94%29.95 "HgN/A
12:55 AM66 °FSprinkles. Passing clouds.16 mph83%29.95 "HgN/A
12:25 AM66 °FPartly cloudy.14 mph83%29.95 "HgN/A
11:55 PM
Sun, Aug 28
66 °FPartly cloudy.14 mph83%29.95 "HgN/A
11:25 PM66 °FPassing clouds.14 mph83%29.95 "HgN/A
10:55 PM66 °FPassing clouds.14 mph83%29.95 "HgN/A
10:25 PM66 °FPassing clouds.15 mph83%29.95 "HgN/A
9:55 PM66 °FPassing clouds.17 mph83%29.95 "HgN/A
9:25 PM66 °FPassing clouds.18 mph78%29.95 "HgN/A
8:55 PM66 °FPartly sunny.18 mph83%29.95 "HgN/A
8:25 PM66 °FPassing clouds.18 mph83%29.95 "HgN/A
7:55 PM66 °FScattered clouds.22 mph78%29.92 "HgN/A
7:25 PM68 °FPassing clouds.24 mph73%29.92 "HgN/A
6:55 PM68 °FPassing clouds.24 mph73%29.92 "HgN/A
6:25 PM70 °FPassing clouds.23 mph69%29.92 "HgN/A
5:55 PM70 °FPassing clouds.25 mph69%29.92 "HgN/A
5:25 PM70 °FPassing clouds.23 mph73%29.92 "HgN/A
4:55 PM70 °FScattered clouds.23 mph73%29.92 "HgN/A
4:25 PM72 °FPassing clouds.21 mph65%29.92 "HgN/A
3:55 PM72 °FPassing clouds.22 mph65%29.92 "HgN/A
3:25 PM72 °FScattered clouds.21 mph65%29.92 "HgN/A
2:55 PM70 °FScattered clouds.22 mph69%29.92 "HgN/A
2:25 PM72 °FScattered clouds.21 mph73%29.92 "HgN/A
1:55 PM72 °FScattered clouds.21 mph73%29.89 "HgN/A
1:25 PM70 °FPartly sunny.20 mph78%29.89 "HgN/A
12:55 PM70 °FBroken clouds.21 mph83%29.89 "HgN/A
12:25 PM72 °FBroken clouds.20 mph83%29.86 "HgN/A
11:55 AM73 °FPartly sunny.17 mph78%29.86 "HgN/A
11:25 AM72 °FPassing clouds.16 mph83%29.86 "Hg5 mi
10:55 AM72 °FClear.13 mph88%29.86 "Hg4 mi
10:25 AM72 °FFog.6 mph88%29.86 "Hg3 mi
9:55 AM70 °FThundershowers. Passing clouds.5 mph88%29.83 "Hg3 mi
9:25 AM70 °FThundershowers. Passing clouds.9 mph88%29.86 "Hg3 mi
8:55 AM72 °FClear.7 mph88%29.83 "Hg3 mi
8:25 AM70 °FThundershowers. Fog.7 mph88%29.83 "Hg3 mi
7:55 AM70 °FClear.8 mph88%29.83 "Hg3 mi
7:25 AM68 °FFog.7 mph94%29.83 "Hg3 mi
Weather by CustomWeather, © 2016

See weather overviewHow to use our weather pages